Theta_e
313 314 313 312 311 309 303 293 288 302 304 290 288 285 290 295 294 295 292 292 290 286 286 284 285 288 291 297 298 291 294 291 287 294 302 303 308 297 297 293 288 288 289 294
313 314 313 311 310 309 302 291 291 301 298 283 284 288 292 294 293 293 291 290 290 288 284 283 288 290 295 297 296 293 294 291 284 290 292 298 296 303 297 294 292 289 291 295
314 313 313 311 310 310 299 292 286 291 292 289 284 286 288 289 296 294 293 291 289 288 284 287 286 288 294 296 295 299 298 291 287 284 289 294 294 299 299 298 293 292 293 295
313 313 312 311 310 309 299 291 287 289 284 287 288 289 289 289 288 293 294 290 289 287 282 283 285 289 291 293 296 295 293 286 287 289 292 295 296 301 301 296 297 295 297 296
313 313 312 312 311 309 296 289 289 289 287 290 289 289 289 289 291 291 289 289 290 290 283 285 283 287 288 288 291 290 291 284 286 285 296 298 298 304 303 301 301 298 298 298
313 313 313 312 310 308 294 295 296 294 292 290 288 287 289 290 292 294 295 292 290 288 289 291 291 292 292 292 290 288 288 285 283 284 296 300 296 298 303 301 301 300 297 300
311 311 311 312 311 310 304 298 300 291 287 290 290 291 292 292 292 290 294 294 290 294 298 296 292 291 291 292 292 293 288 285 284 284 292 288 297 302 302 303 303 304 308 309
311 312 312 312 312 311 306 305 299 293 287 290 291 292 293 293 293 292 293 295 297 298 292 284 283 284 287 290 292 291 293 289 281 285 290 296 298 299 298 296 298 303 305 313
312 312 312 312 313 312 308 303 305 296 290 289 294 292 293 290 290 291 292 297 297 295 287 284 281 281 286 286 290 293 292 293 286 286 288 288 294 301 304 305 292 302 304 305
311 312 313 313 313 312 309 304 305 298 291 294 295 292 291 295 293 290 292 292 291 293 288 284 284 284 290 285 285 285 286 288 287 288 290 293 297 301 306 292 295 303 303 304
311 312 312 313 313 313 310 306 306 300 293 295 298 299 295 295 295 290 294 289 289 286 284 285 284 285 287 287 289 287 287 286 285 286 288 286 299 300 293 296 301 302 303 303
311 312 312 313 313 313 312 304 309 306 298 298 301 302 303 301 300 296 297 292 290 289 286 286 287 285 288 287 283 291 285 289 287 287 289 298 300 301 303 301 299 299 301 303
311 312 313 313 313 313 312 306 305 302 297 296 298 300 306 307 306 306 294 296 297 292 292 288 288 286 287 283 285 288 291 293 288 286 291 293 296 300 300 300 299 300 301 302
312 313 313 313 313 313 309 304 305 302 296 287 293 306 300 307 303 305 304 301 300 298 292 286 285 285 290 285 286 286 291 292 289 288 290 294 297 298 299 300 301 301 302 301
312 312 313 312 312 312 311 306 303 301 296 287 290 296 298 301 300 300 300 298 297 295 291 288 286 290 288 286 286 288 293 290 287 287 293 293 294 297 300 300 300 301 301 300
312 312 312 312 312 312 309 300 304 304 300 291 287 297 301 302 299 298 296 297 295 294 290 288 290 293 289 284 282 292 293 295 298 297 299 297 298 299 301 302 302 303 303 302
312 312 311 312 311 305 302 298 303 306 302 295 290 293 300 301 297 296 296 296 293 293 290 289 289 290 290 285 283 290 297 298 299 302 304 298 300 300 304 302 304 306 306 305
311 311 310 309 308 306 301 302 307 305 298 295 293 295 298 303 298 294 294 291 293 292 290 291 288 289 287 284 290 296 297 298 299 301 303 301 303 303 303 304 304 304 305 305
311 311 311 306 302 300 301 310 308 303 298 295 296 293 293 301 299 297 293 291 289 293 290 291 291 285 284 288 293 295 299 296 297 301 302 303 303 303 304 303 304 303 302 303
311 306 303 301 302 312 308 301 299 300 296 295 293 299 296 302 299 297 295 294 293 290 291 294 290 290 296 297 297 297 300 300 300 297 296 299 300 300 301 302 302 301 302 303
303 302 302 302 311 302 301 299 293 293 294 296 295 299 298 304 297 296 299 295 292 285 288 288 289 288 295 299 297 297 299 303 301 301 301 301 301 300 299 300 301 301 301 302
306 304 307 304 300 299 296 294 296 294 292 298 297 298 301 300 300 296 299 294 293 285 293 287 285 293 297 296 298 297 296 301 301 302 301 301 302 302 301 300 300 300 300 301
307 305 303 302 299 290 293 290 291 291 295 295 299 298 300 301 300 297 296 291 290 293 286 285 290 294 296 296 296 297 296 298 302 301 301 301 301 302 300 299 300 300 300 301
303 304 289 294 293 295 294 292 292 296 295 296 296 302 298 299 297 294 292 291 290 284 283 284 289 293 295 296 297 296 295 295 297 302 300 300 300 299 300 300 299 298 297 299
305 301 291 298 299 297 297 297 296 297 297 296 296 300 295 293 292 291 291 288 284 286 284 287 292 294 294 295 296 296 296 295 294 295 300 301 300 300 300 300 300 299 298 298
307 301 296 298 296 295 295 296 294 297 297 298 297 293 291 289 288 287 285 284 277 285 289 292 293 294 294 294 296 297 297 293 294 295 297 300 300 300 300 301 301 301 300 299
302 302 301 299 297 296 296 296 296 298 295 291 292 289 288 290 287 286 288 285 286 288 291 294 295 296 295 296 296 296 296 294 293 294 297 296 301 297 295 293 294 295 300 300
Wind_Speed
19 20 20 19 20 22 8 4 5 5 10 8 4 4 8 9 11 11 6 4 2 1 3 1 3 6 3 14 15 10 9 7 8 11 12 4 21 8 10 9 11 3 4 13
18 18 18 16 18 14 6 5 4 5 7 5 4 6 7 8 9 7 5 3 4 3 2 3 1 3 6 11 11 8 9 4 10 11 5 3 5 12 11 7 6 11 13 16
16 17 16 14 15 15 3 3 5 6 5 2 2 5 6 9 10 0 6 6 2 4 2 4 3 2 4 7 12 8 8 4 10 9 10 11 6 12 10 16 9 10 12 10
17 16 15 14 13 14 3 1 1 2 5 5 10 7 7 10 6 4 9 8 5 5 5 5 4 3 5 5 6 3 2 10 11 21 28 26 24 12 14 14 14 14 11 7
18 16 14 12 13 12 3 1 2 4 3 5 8 5 4 9 10 8 12 5 14 12 7 10 7 6 5 3 2 3 3 7 16 25 19 18 18 6 7 13 17 7 8 8
18 16 14 12 11 5 2 3 2 3 3 3 3 4 10 14 15 7 10 11 7 9 12 11 13 14 12 9 8 6 5 4 6 8 6 6 5 14 7 7 7 9 11 11
19 17 14 12 9 2 2 3 0 2 3 5 4 9 16 12 15 12 14 4 5 7 15 16 10 10 14 13 15 13 9 9 5 8 8 7 9 20 16 19 22 20 12 10
19 17 15 13 9 8 3 2 2 3 3 5 9 11 9 11 12 12 6 4 8 10 7 3 5 5 4 8 13 18 12 9 6 3 4 4 12 21 14 6 17 22 20 5
18 17 15 13 10 9 3 3 3 2 1 4 8 6 8 5 4 4 5 7 9 3 2 3 2 3 3 4 5 15 11 11 7 5 2 5 13 28 30 5 19 22 21 22
17 16 15 13 11 9 3 2 4 2 2 4 1 4 4 4 3 3 6 10 7 4 5 3 4 1 7 4 5 2 4 8 5 5 3 6 22 29 17 12 5 12 16 15
16 15 14 13 11 9 1 2 6 4 2 4 4 6 8 6 4 2 4 5 6 5 6 4 5 4 4 2 4 3 3 2 4 8 7 6 17 12 11 5 10 17 14 11
15 14 14 12 9 6 2 2 2 2 0 5 3 7 10 9 11 4 1 2 2 3 4 4 3 2 5 7 4 7 5 4 1 4 3 5 1 4 4 8 10 14 16 16
15 14 13 10 5 3 4 2 2 2 0 4 3 4 4 4 2 4 3 2 1 2 4 3 3 4 5 5 4 4 11 13 5 8 4 11 14 7 9 14 14 13 12 16
14 14 12 8 4 4 6 2 2 0 1 1 6 0 4 7 7 6 2 4 3 2 2 2 2 3 4 4 3 3 6 6 10 9 6 12 3 8 16 23 18 17 13 9
13 13 10 1 4 7 3 2 3 2 3 2 5 7 1 5 6 9 8 5 3 2 2 4 4 2 4 4 4 4 9 7 5 5 13 13 20 21 20 18 20 18 13 17
12 10 4 5 7 7 2 1 2 2 3 3 3 4 4 2 3 5 8 4 4 3 3 3 3 4 4 3 2 5 18 18 14 9 8 12 19 19 21 19 18 20 12 10
8 4 3 1 4 2 3 4 4 5 2 2 3 4 2 2 3 4 3 4 3 2 2 3 2 4 4 4 5 18 17 18 19 19 13 6 14 9 7 7 12 10 10 8
6 3 4 7 9 6 1 2 4 3 2 1 1 3 2 2 3 3 3 3 3 5 3 3 3 3 3 4 15 17 15 18 19 20 16 7 9 11 12 9 10 9 9 8
2 2 4 2 1 2 3 7 5 1 2 1 1 1 3 1 1 2 2 2 4 1 2 2 1 2 4 7 11 14 12 17 20 20 22 19 18 15 15 13 6 2 6 6
2 2 1 3 2 10 8 3 1 1 2 2 3 1 3 4 3 2 2 1 1 2 1 3 3 2 3 6 7 7 8 12 17 21 24 18 20 18 19 18 16 15 9 5
1 2 2 1 3 1 1 2 2 0 2 2 4 5 3 1 3 3 3 3 3 2 2 3 2 2 7 8 8 6 4 5 9 9 12 16 16 15 16 16 17 17 18 13
3 2 2 2 0 1 1 3 1 2 4 4 4 5 5 2 4 2 3 3 2 2 3 4 4 3 7 7 7 9 5 2 7 7 8 10 14 14 12 13 15 16 18 20
1 1 2 4 3 5 3 5 6 5 4 3 3 4 3 1 2 2 3 3 3 4 5 2 3 6 7 7 6 8 9 4 4 7 7 7 8 11 14 14 15 17 19 19
2 4 5 3 2 2 2 3 4 7 4 7 1 1 3 3 2 1 5 2 5 4 4 2 4 6 7 7 6 5 8 9 3 2 3 6 7 9 10 11 13 16 18 20
4 2 2 1 1 1 2 2 4 5 4 4 3 2 4 4 5 4 5 5 3 1 4 3 4 5 5 6 6 7 8 7 7 2 4 2 1 3 5 6 7 10 11 14
3 2 3 1 5 4 4 3 4 4 5 4 4 4 4 4 3 4 2 4 3 4 3 4 1 2 4 5 7 7 6 6 7 6 4 3 3 3 3 2 3 3 5 6
2 2 1 4 3 3 3 1 4 3 4 2 3 4 0 2 3 2 3 2 3 4 4 3 4 3 5 7 7 7 5 4 6 6 6 5 4 4 4 6 4 3 4 4
Wind_Direction
333 331 337 342 340 341 6 352 350 314 358 46 20 21 323 310 9 348 15 5 20 251 313 297 347 345 318 2 8 343 332 297 289 249 247 301 222 186 183 199 214 197 188 255
330 328 334 341 336 2 334 323 273 324 52 55 336 301 311 325 354 342 10 310 41 288 315 352 7 336 331 12 8 26 9 345 313 309 22 262 207 211 195 169 137 197 217 257
327 326 334 336 333 341 36 345 348 331 33 83 360 331 283 333 329 167 320 284 283 4 333 191 259 316 19 0 324 331 357 271 251 279 307 326 279 223 200 191 194 195 219 252
326 327 333 330 330 331 75 7 307 209 324 337 317 305 277 328 333 5 358 340 41 287 295 314 234 225 290 24 11 58 301 265 260 257 263 271 261 251 208 202 191 193 222 203
324 325 331 326 322 338 80 64 9 5 268 291 309 304 346 324 331 336 318 322 319 325 221 209 254 249 270 169 27 322 232 267 307 286 256 226 242 242 266 211 201 148 188 240
324 326 324 320 321 36 332 303 28 140 249 265 286 282 322 309 320 319 311 314 298 294 274 277 237 228 236 174 168 228 194 260 336 267 314 187 69 355 7 203 162 186 201 227
323 322 320 314 311 271 227 233 233 204 262 237 241 277 293 300 318 296 301 23 352 284 287 301 267 235 232 234 207 193 216 241 221 265 310 147 129 35 36 51 38 14 347 335
323 319 315 308 302 276 211 216 181 196 263 258 271 274 300 304 300 292 279 319 268 260 276 280 292 268 200 226 208 206 205 252 273 264 268 158 23 5 344 1 38 16 2 93
320 316 315 312 297 276 231 223 158 163 275 237 256 298 296 295 296 306 278 309 303 326 334 274 196 268 234 160 314 188 215 279 240 316 336 68 3 336 335 142 40 8 16 28
320 318 320 314 302 285 238 243 155 130 228 270 257 270 289 261 260 251 295 335 321 13 22 297 243 305 337 30 44 155 223 270 237 247 98 76 355 341 347 64 39 19 11 29
323 322 321 316 309 300 252 250 178 157 204 283 274 292 291 280 252 284 320 336 6 347 17 3 339 333 326 62 36 19 42 329 354 338 58 54 348 353 59 300 358 9 360 15
329 323 316 313 308 294 191 233 144 140 124 268 265 268 267 271 266 277 167 184 340 360 23 359 297 313 342 2 59 350 57 26 286 23 184 179 66 307 282 9 11 5 351 352
328 325 325 332 330 274 184 117 106 100 301 286 309 292 277 349 337 256 134 103 8 335 196 226 292 32 339 6 37 24 5 3 35 321 134 3 316 302 360 357 348 341 336 334
332 335 332 331 4 101 130 137 181 326 94 56 287 215 15 356 15 23 55 126 107 300 39 52 54 42 354 328 307 63 13 342 316 285 283 329 1 341 336 321 324 318 316 314
341 340 338 8 133 150 149 120 198 196 123 199 286 318 101 29 30 29 29 49 57 42 31 39 34 348 348 326 348 11 4 340 330 278 286 277 271 287 289 296 301 297 309 313
342 344 27 122 138 152 152 310 272 227 130 91 12 282 360 111 42 76 62 43 33 39 28 33 36 330 351 31 312 316 334 319 316 300 257 238 260 270 278 283 283 279 283 275
335 344 22 37 146 131 198 193 201 166 98 44 331 319 285 18 16 17 15 30 62 55 81 55 358 5 15 13 343 324 339 339 347 347 347 271 257 265 292 251 261 271 286 278
334 314 38 60 91 81 354 269 117 104 101 92 302 274 324 186 331 357 8 20 17 22 20 27 19 4 13 28 320 341 4 351 350 356 357 320 311 319 301 252 234 271 258 242
263 267 319 22 205 225 217 174 141 102 129 288 268 155 271 201 70 63 46 52 36 359 42 37 24 8 49 249 328 360 5 8 355 1 15 13 11 2 7 13 30 329 318 323
156 29 9 288 244 121 114 45 152 185 239 241 250 216 258 169 161 184 106 91 306 38 60 127 66 22 253 292 314 318 356 357 1 14 12 11 22 20 24 28 18 16 13 322
76 236 241 251 168 48 108 281 188 220 283 202 231 201 228 224 177 178 198 174 172 76 230 97 26 29 342 335 320 325 330 9 18 28 24 18 16 22 22 18 15 11 359 352
212 259 250 108 213 294 285 254 299 143 242 206 209 224 195 235 105 127 191 225 142 80 129 66 10 346 323 327 319 317 340 39 27 23 10 28 40 25 14 20 21 14 12 12
320 225 250 107 252 17 325 346 327 342 297 272 218 270 156 251 141 205 160 57 42 90 50 22 249 286 313 320 319 317 328 42 84 39 24 27 35 40 35 30 23 16 16 17
170 192 320 151 349 279 253 223 229 249 266 302 299 249 174 191 120 283 75 74 51 60 29 284 257 278 296 315 315 338 322 335 45 129 30 15 33 46 39 39 44 41 30 19
240 149 279 22 252 234 244 288 355 298 271 320 1 27 81 16 50 28 45 44 35 107 235 236 242 258 285 303 316 322 326 326 338 16 195 208 36 65 55 48 53 55 55 50
230 261 22 284 60 337 353 330 305 294 308 348 46 60 58 35 80 54 31 85 226 271 240 242 216 260 287 295 309 315 305 322 338 353 352 217 228 205 181 177 130 98 68 59
261 285 9 131 160 194 231 225 282 301 34 335 71 49 142 80 74 48 66 141 214 240 285 277 232 240 258 285 305 312 314 332 348 360 12 25 101 90 58 47 38 70 169 190